This is the latest recevied weather packets stored in our database for station/object OK1FET-4. If no packets are shown the sender has not sent any weather packets the latest 10 day(s).
| Time | Temp. | Humidity | Pressure | Rain* | Wind** | Luminosity | Snow |
|---|---|---|---|---|---|---|---|
| 1777462574 | 16.11° C | 31% | 1025.3 hPa | - | - | - | - |
| 1777462273 | 16.67° C | 30% | 1025.2 hPa | - | - | - | - |
| 1777461972 | 17.22° C | 30% | 1025.3 hPa | - | - | - | - |
| 1777461672 | 17.22° C | 30% | 1025.4 hPa | - | - | - | - |
| 1777461371 | 17.22° C | 29% | 1025.4 hPa | - | - | - | - |
| 1777461070 | 17.22° C | 30% | 1025.4 hPa | - | - | - | - |
| 1777460769 | 17.22° C | 30% | 1025.3 hPa | - | - | - | - |
| 1777460468 | 18.33° C | 30% | 1025.5 hPa | - | - | - | - |
| 1777460167 | 18.33° C | 30% | 1025.6 hPa | - | - | - | - |
| 1777459866 | 18.33° C | 30% | 1025.7 hPa | - | - | - | - |
| 1777459565 | 17.78° C | 31% | 1025.7 hPa | - | - | - | - |
| 1777459264 | 17.22° C | 31% | 1025.8 hPa | - | - | - | - |
| 1777458963 | 16.11° C | 31% | 1025.9 hPa | - | - | - | - |
| 1777458663 | 16.67° C | 31% | 1025.9 hPa | - | - | - | - |
| 1777458362 | 17.22° C | 30% | 1025.9 hPa | - | - | - | - |
| 1777458061 | 16.67° C | 30% | 1025.9 hPa | - | - | - | - |
| 1777457760 | 16.11° C | 30% | 1026 hPa | - | - | - | - |
| 1777457459 | 16.11° C | 30% | 1026 hPa | - | - | - | - |
| 1777457158 | 16.11° C | 30% | 1026 hPa | - | - | - | - |
| 1777456858 | 16.11° C | 31% | 1026 hPa | - | - | - | - |
| 1777456557 | 15.56° C | 31% | 1026 hPa | - | - | - | - |
| 1777456256 | 15° C | 30% | 1026.1 hPa | - | - | - | - |
| 1777455956 | 15° C | 30% | 1026 hPa | - | - | - | - |
* Rain since midnight (hover to see other rain measurements)
** Current wind speed in m/s (hover to see current wind gust speed)